Year,Month,Day,Hour,Minute,Value (Times are PST for temperature in C)
2017,08,23,00,00,17.90
2017,08,23,00,01,17.90
2017,08,23,00,02,17.90
2017,08,23,00,03,17.80
2017,08,23,00,04,17.80
2017,08,23,00,05,17.80
2017,08,23,00,06,17.80
2017,08,23,00,07,17.80
2017,08,23,00,08,17.80
2017,08,23,00,09,17.80
2017,08,23,00,10,17.80
2017,08,23,00,11,17.80
2017,08,23,00,12,17.80
2017,08,23,00,13,17.80
2017,08,23,00,14,17.80
2017,08,23,00,15,17.80
2017,08,23,00,16,17.80
2017,08,23,00,17,17.80
2017,08,23,00,18,17.80
2017,08,23,00,19,17.70
2017,08,23,00,20,17.70
2017,08,23,00,21,17.70
2017,08,23,00,22,17.70
2017,08,23,00,23,17.70
2017,08,23,00,24,17.70
2017,08,23,00,25,17.60
2017,08,23,00,26,17.60
2017,08,23,00,27,17.60
2017,08,23,00,28,17.60
2017,08,23,00,29,17.60
2017,08,23,00,30,17.60
2017,08,23,00,31,17.60
2017,08,23,00,32,17.60
2017,08,23,00,33,17.60
2017,08,23,00,34,17.60
2017,08,23,00,35,17.50
2017,08,23,00,36,17.50
2017,08,23,00,37,17.40
2017,08,23,00,38,17.40
2017,08,23,00,39,17.40
2017,08,23,00,40,17.40
2017,08,23,00,41,17.40
2017,08,23,00,42,17.40
2017,08,23,00,43,17.40
2017,08,23,00,44,17.40
2017,08,23,00,45,17.40
2017,08,23,00,46,17.40
2017,08,23,00,47,17.40
2017,08,23,00,48,17.40
2017,08,23,00,49,17.50
2017,08,23,00,50,17.50
2017,08,23,00,51,17.60
2017,08,23,00,52,17.60
2017,08,23,00,53,17.70
2017,08,23,00,54,17.70
2017,08,23,00,55,17.70
2017,08,23,00,56,17.80
2017,08,23,00,57,17.80
2017,08,23,00,58,17.90
2017,08,23,00,59,17.90
2017,08,23,01,00,18.10
2017,08,23,01,01,18.20
2017,08,23,01,02,18.40
2017,08,23,01,03,18.60
2017,08,23,01,04,18.70
2017,08,23,01,05,18.80
2017,08,23,01,06,18.90
2017,08,23,01,07,18.90
2017,08,23,01,08,19.00
2017,08,23,01,09,19.00
2017,08,23,01,10,19.10
2017,08,23,01,11,19.10
2017,08,23,01,12,19.10
2017,08,23,01,13,19.10
2017,08,23,01,14,19.10
2017,08,23,01,15,19.10
2017,08,23,01,16,19.10
2017,08,23,01,17,19.10
2017,08,23,01,18,19.10
2017,08,23,01,19,19.00
2017,08,23,01,20,19.00
2017,08,23,01,21,19.00
2017,08,23,01,22,19.00
2017,08,23,01,23,19.10
2017,08,23,01,24,19.00
2017,08,23,01,25,19.00
2017,08,23,01,26,19.00
2017,08,23,01,27,18.90
2017,08,23,01,28,18.90
2017,08,23,01,29,18.90
2017,08,23,01,30,18.90
2017,08,23,01,31,18.90
2017,08,23,01,32,18.90
2017,08,23,01,33,18.90
2017,08,23,01,34,18.90
2017,08,23,01,35,18.90
2017,08,23,01,36,18.90
2017,08,23,01,37,18.90
2017,08,23,01,38,18.90
2017,08,23,01,39,18.90
2017,08,23,01,40,18.80
2017,08,23,01,41,18.80
2017,08,23,01,42,18.70
2017,08,23,01,43,18.70
2017,08,23,01,44,18.60
2017,08,23,01,45,18.60
2017,08,23,01,46,18.60
2017,08,23,01,47,18.60
2017,08,23,01,48,18.60
2017,08,23,01,49,18.60
2017,08,23,01,50,18.60
2017,08,23,01,51,18.60
2017,08,23,01,52,18.50
2017,08,23,01,53,18.50
2017,08,23,01,54,18.50
2017,08,23,01,55,18.50
2017,08,23,01,56,18.50
2017,08,23,01,57,18.40
2017,08,23,01,58,18.40
2017,08,23,01,59,18.30
2017,08,23,02,00,18.30
2017,08,23,02,01,18.30
2017,08,23,02,02,18.20
2017,08,23,02,03,18.20
2017,08,23,02,04,18.10
2017,08,23,02,05,18.10
2017,08,23,02,06,18.00
2017,08,23,02,07,18.00
2017,08,23,02,08,17.90
2017,08,23,02,09,17.90
2017,08,23,02,10,17.80
2017,08,23,02,11,17.80
2017,08,23,02,12,17.70
2017,08,23,02,13,17.70
2017,08,23,02,14,17.70
2017,08,23,02,15,17.60
2017,08,23,02,16,17.60
2017,08,23,02,17,17.60
2017,08,23,02,18,17.50
2017,08,23,02,19,17.50
2017,08,23,02,20,17.40
2017,08,23,02,21,17.40
2017,08,23,02,22,17.30
2017,08,23,02,23,17.30
2017,08,23,02,24,17.30
2017,08,23,02,25,17.20
2017,08,23,02,26,17.20
2017,08,23,02,27,17.10
2017,08,23,02,28,17.10
2017,08,23,02,29,17.10
2017,08,23,02,30,17.00
2017,08,23,02,31,17.00
2017,08,23,02,32,17.00
2017,08,23,02,33,16.90
2017,08,23,02,34,16.90
2017,08,23,02,35,16.90
2017,08,23,02,36,16.80
2017,08,23,02,37,16.80
2017,08,23,02,38,16.80
2017,08,23,02,39,16.80
2017,08,23,02,40,16.70
2017,08,23,02,41,16.70
2017,08,23,02,42,16.70
2017,08,23,02,43,16.70
2017,08,23,02,44,16.60
2017,08,23,02,45,16.60
2017,08,23,02,46,16.70
2017,08,23,02,47,16.70
2017,08,23,02,48,16.70
2017,08,23,02,49,16.80
2017,08,23,02,50,16.80
2017,08,23,02,51,16.80
2017,08,23,02,52,16.90
2017,08,23,02,53,16.90
2017,08,23,02,54,17.00
2017,08,23,02,55,17.10
2017,08,23,02,56,17.20
2017,08,23,02,57,17.30
2017,08,23,02,58,17.30
2017,08,23,02,59,17.40
2017,08,23,03,00,17.40
2017,08,23,03,01,17.40
2017,08,23,03,02,17.40
2017,08,23,03,03,17.40
2017,08,23,03,04,17.40
2017,08,23,03,05,17.40
2017,08,23,03,06,17.40
2017,08,23,03,07,17.40
2017,08,23,03,08,17.40
2017,08,23,03,09,17.40
2017,08,23,03,10,17.40
2017,08,23,03,11,17.40
2017,08,23,03,12,17.40
2017,08,23,03,13,17.40
2017,08,23,03,14,17.40
2017,08,23,03,15,17.40
2017,08,23,03,16,17.40
2017,08,23,03,17,17.40
2017,08,23,03,18,17.40
2017,08,23,03,19,17.40
2017,08,23,03,20,17.40
2017,08,23,03,21,17.50
2017,08,23,03,22,17.50
2017,08,23,03,23,17.60
2017,08,23,03,24,17.60
2017,08,23,03,25,17.70
2017,08,23,03,26,17.70
2017,08,23,03,27,17.70
2017,08,23,03,28,17.70
2017,08,23,03,29,17.80
2017,08,23,03,30,17.80
2017,08,23,03,31,17.80
2017,08,23,03,32,17.80
2017,08,23,03,33,17.80
2017,08,23,03,34,17.80
2017,08,23,03,35,17.80
2017,08,23,03,36,17.80
2017,08,23,03,37,17.80
2017,08,23,03,38,17.70
2017,08,23,03,39,17.70
2017,08,23,03,40,17.70
2017,08,23,03,41,17.70
2017,08,23,03,42,17.70
2017,08,23,03,43,17.70
2017,08,23,03,44,17.70
2017,08,23,03,45,17.60
2017,08,23,03,46,17.60
2017,08,23,03,47,17.60
2017,08,23,03,48,17.50
2017,08,23,03,49,17.40
2017,08,23,03,50,17.40
2017,08,23,03,51,17.40
2017,08,23,03,52,17.40
2017,08,23,03,53,17.40
2017,08,23,03,54,17.40
2017,08,23,03,55,17.40
2017,08,23,03,56,17.40
2017,08,23,03,57,17.40
2017,08,23,03,58,17.40
2017,08,23,03,59,17.50
2017,08,23,04,00,17.50
2017,08,23,04,01,17.60
2017,08,23,04,02,17.60
2017,08,23,04,03,17.60
2017,08,23,04,04,17.60
2017,08,23,04,05,17.70
2017,08,23,04,06,17.70
2017,08,23,04,07,17.70
2017,08,23,04,08,17.70
2017,08,23,04,09,17.70
2017,08,23,04,10,17.70
2017,08,23,04,11,17.70
2017,08,23,04,12,17.70
2017,08,23,04,13,17.70
2017,08,23,04,14,17.60
2017,08,23,04,15,17.60
2017,08,23,04,16,17.50
2017,08,23,04,17,17.50
2017,08,23,04,18,17.40
2017,08,23,04,19,17.40
2017,08,23,04,20,17.40
2017,08,23,04,21,17.40
2017,08,23,04,22,17.40
2017,08,23,04,23,17.40
2017,08,23,04,24,17.30
2017,08,23,04,25,17.30
2017,08,23,04,26,17.30
2017,08,23,04,27,17.30
2017,08,23,04,28,17.20
2017,08,23,04,29,17.20
2017,08,23,04,30,17.20
2017,08,23,04,31,17.20
2017,08,23,04,32,17.20
2017,08,23,04,33,17.20
2017,08,23,04,34,17.20
2017,08,23,04,35,17.20
2017,08,23,04,36,17.30
2017,08,23,04,37,17.40
2017,08,23,04,38,17.40
2017,08,23,04,39,17.50
2017,08,23,04,40,17.50
2017,08,23,04,41,17.60
2017,08,23,04,42,17.60
2017,08,23,04,43,17.60
2017,08,23,04,44,17.60
2017,08,23,04,45,17.60
2017,08,23,04,46,17.60
2017,08,23,04,47,17.60
2017,08,23,04,48,17.60
2017,08,23,04,49,17.60
2017,08,23,04,50,17.60
2017,08,23,04,51,17.60
2017,08,23,04,52,17.60
2017,08,23,04,53,17.60
2017,08,23,04,54,17.60
2017,08,23,04,55,17.60
2017,08,23,04,56,17.60
2017,08,23,04,57,17.60
2017,08,23,04,58,17.50
2017,08,23,04,59,17.50
2017,08,23,05,00,17.50
2017,08,23,05,01,17.40
2017,08,23,05,02,17.40
2017,08,23,05,03,17.40
2017,08,23,05,04,17.40
2017,08,23,05,05,17.40
2017,08,23,05,06,17.40
2017,08,23,05,07,17.40
2017,08,23,05,08,17.40
2017,08,23,05,09,17.40
2017,08,23,05,10,17.40
2017,08,23,05,11,17.40
2017,08,23,05,12,17.40
2017,08,23,05,13,17.40
2017,08,23,05,14,17.40
2017,08,23,05,15,17.40
2017,08,23,05,16,17.40
2017,08,23,05,17,17.40
2017,08,23,05,18,17.50
2017,08,23,05,19,17.50
2017,08,23,05,20,17.50
2017,08,23,05,21,17.60
2017,08,23,05,22,17.60
2017,08,23,05,23,17.60
2017,08,23,05,24,17.60
2017,08,23,05,25,17.60
2017,08,23,05,26,17.50
2017,08,23,05,27,17.50
2017,08,23,05,28,17.50
2017,08,23,05,29,17.40
2017,08,23,05,30,17.40
2017,08,23,05,31,17.30
2017,08,23,05,32,17.20
2017,08,23,05,33,17.20
2017,08,23,05,34,17.10
2017,08,23,05,35,17.00
2017,08,23,05,36,17.00
2017,08,23,05,37,16.90
2017,08,23,05,38,16.90
2017,08,23,05,39,16.80
2017,08,23,05,40,16.80
2017,08,23,05,41,16.70
2017,08,23,05,42,16.70
2017,08,23,05,43,16.60
2017,08,23,05,44,16.60
2017,08,23,05,45,16.50
2017,08,23,05,46,16.50
2017,08,23,05,47,16.40
2017,08,23,05,48,16.40
2017,08,23,05,49,16.40
2017,08,23,05,50,16.40
2017,08,23,05,51,16.30
2017,08,23,05,52,16.30
2017,08,23,05,53,16.30
2017,08,23,05,54,16.30
2017,08,23,05,55,16.20
2017,08,23,05,56,16.20
2017,08,23,05,57,16.20
2017,08,23,05,58,16.20
2017,08,23,05,59,16.20
2017,08,23,06,00,16.20
2017,08,23,06,01,16.20
2017,08,23,06,02,16.10
2017,08,23,06,03,16.10
2017,08,23,06,04,16.10
2017,08,23,06,05,16.10
2017,08,23,06,06,16.10
2017,08,23,06,07,16.10
2017,08,23,06,08,16.10
2017,08,23,06,09,16.10
2017,08,23,06,10,16.10
2017,08,23,06,11,16.10
2017,08,23,06,12,16.00
2017,08,23,06,13,16.00
2017,08,23,06,14,16.00
2017,08,23,06,15,16.00
2017,08,23,06,16,16.00
2017,08,23,06,17,15.90
2017,08,23,06,18,15.90
2017,08,23,06,19,15.90
2017,08,23,06,20,15.90
2017,08,23,06,21,15.90
2017,08,23,06,22,15.90
2017,08,23,06,23,15.90
2017,08,23,06,24,15.80
2017,08,23,06,25,15.80
2017,08,23,06,26,15.80
2017,08,23,06,27,15.80
2017,08,23,06,28,15.80
2017,08,23,06,29,15.80
2017,08,23,06,30,15.80
2017,08,23,06,31,15.80
2017,08,23,06,32,15.80
2017,08,23,06,33,15.80
2017,08,23,06,34,15.80
2017,08,23,06,35,15.80
2017,08,23,06,36,15.80
2017,08,23,06,37,15.80
2017,08,23,06,38,15.80
2017,08,23,06,39,15.80
2017,08,23,06,40,15.80
2017,08,23,06,41,15.80
2017,08,23,06,42,15.80
2017,08,23,06,43,15.80
2017,08,23,06,44,15.80
2017,08,23,06,45,15.80
2017,08,23,06,46,15.80
2017,08,23,06,47,15.80
2017,08,23,06,48,15.80
2017,08,23,06,49,15.80
2017,08,23,06,50,15.80
2017,08,23,06,51,15.80
2017,08,23,06,52,15.80
2017,08,23,06,53,15.70
2017,08,23,06,54,15.70
2017,08,23,06,55,15.70
2017,08,23,06,56,15.70
2017,08,23,06,57,15.60
2017,08,23,06,58,15.60
2017,08,23,06,59,15.60
2017,08,23,07,00,15.50
2017,08,23,07,01,15.50
2017,08,23,07,02,15.50
2017,08,23,07,03,15.50
2017,08,23,07,04,15.40
2017,08,23,07,05,15.40
2017,08,23,07,06,15.40
2017,08,23,07,07,15.40
2017,08,23,07,08,15.40
2017,08,23,07,09,15.40
2017,08,23,07,10,15.30
2017,08,23,07,11,15.30
2017,08,23,07,12,15.30
2017,08,23,07,13,15.30
2017,08,23,07,14,15.30
2017,08,23,07,15,15.30
2017,08,23,07,16,15.30
2017,08,23,07,17,15.30
2017,08,23,07,18,15.30
2017,08,23,07,19,15.30
2017,08,23,07,20,15.30
2017,08,23,07,21,15.30
2017,08,23,07,22,15.30
2017,08,23,07,23,15.30
2017,08,23,07,24,15.30
2017,08,23,07,25,15.30
2017,08,23,07,26,15.30
2017,08,23,07,27,15.30
2017,08,23,07,28,15.30
2017,08,23,07,29,15.30
2017,08,23,07,30,15.30
2017,08,23,07,31,15.30
2017,08,23,07,32,15.30
2017,08,23,07,33,15.30
2017,08,23,07,34,15.30
2017,08,23,07,35,15.30
2017,08,23,07,36,15.40
2017,08,23,07,37,15.50
2017,08,23,07,38,15.50
2017,08,23,07,39,15.60
2017,08,23,07,40,15.60
2017,08,23,07,41,15.60
2017,08,23,07,42,15.70
2017,08,23,07,43,15.70
2017,08,23,07,44,15.70
2017,08,23,07,45,15.70
2017,08,23,07,46,15.70
2017,08,23,07,47,15.70
2017,08,23,07,48,15.70
2017,08,23,07,49,15.80
2017,08,23,07,50,15.90
2017,08,23,07,51,15.90
2017,08,23,07,52,15.90
2017,08,23,07,53,15.90
2017,08,23,07,54,16.00
2017,08,23,07,55,16.00
2017,08,23,07,56,16.00
2017,08,23,07,57,16.00
2017,08,23,07,58,16.00
2017,08,23,07,59,16.10
2017,08,23,08,00,16.10
2017,08,23,08,01,16.20
2017,08,23,08,02,16.20
2017,08,23,08,03,16.30
2017,08,23,08,04,16.40
2017,08,23,08,05,16.50
2017,08,23,08,06,16.50
2017,08,23,08,07,16.60
2017,08,23,08,08,16.70
2017,08,23,08,09,16.70
2017,08,23,08,10,16.80
2017,08,23,08,11,16.80
2017,08,23,08,12,16.90
2017,08,23,08,13,17.00
2017,08,23,08,14,17.10
2017,08,23,08,15,17.20
2017,08,23,08,16,17.30
2017,08,23,08,17,17.40
2017,08,23,08,18,17.50
2017,08,23,08,19,17.60
2017,08,23,08,20,17.70
2017,08,23,08,21,17.90
2017,08,23,08,22,18.00
2017,08,23,08,23,18.20
2017,08,23,08,24,18.30
2017,08,23,08,25,18.50
2017,08,23,08,26,18.60
2017,08,23,08,27,18.80
2017,08,23,08,28,18.90
2017,08,23,08,29,19.00
2017,08,23,08,30,19.10
2017,08,23,08,31,19.20
2017,08,23,08,32,19.20
2017,08,23,08,33,19.20
2017,08,23,08,34,19.20
2017,08,23,08,35,19.20
2017,08,23,08,36,19.10
2017,08,23,08,37,19.10
2017,08,23,08,38,19.10
2017,08,23,08,39,19.00
2017,08,23,08,40,19.00
2017,08,23,08,41,18.90
2017,08,23,08,42,18.90
2017,08,23,08,43,18.90
2017,08,23,08,44,18.80
2017,08,23,08,45,18.80
2017,08,23,08,46,18.80
2017,08,23,08,47,18.90
2017,08,23,08,48,18.90
2017,08,23,08,49,18.90
2017,08,23,08,50,18.90
2017,08,23,08,51,18.90
2017,08,23,08,52,18.90
2017,08,23,08,53,18.90
2017,08,23,08,54,18.90
2017,08,23,08,55,18.90
2017,08,23,08,56,18.90
2017,08,23,08,57,18.90
2017,08,23,08,58,18.90
2017,08,23,08,59,18.90
2017,08,23,09,00,18.80
2017,08,23,09,01,18.80
2017,08,23,09,02,18.80
2017,08,23,09,03,18.80
2017,08,23,09,04,18.90
2017,08,23,09,05,18.90
2017,08,23,09,06,18.90
2017,08,23,09,07,19.00
2017,08,23,09,08,19.00
2017,08,23,09,09,19.00
2017,08,23,09,10,19.10
2017,08,23,09,11,19.10
2017,08,23,09,12,19.10
2017,08,23,09,13,19.20
2017,08,23,09,14,19.20
2017,08,23,09,15,19.30
2017,08,23,09,16,19.40
2017,08,23,09,17,19.50
2017,08,23,09,18,19.60
2017,08,23,09,19,19.70
2017,08,23,09,20,19.80
2017,08,23,09,21,19.80
2017,08,23,09,22,19.80
2017,08,23,09,23,19.80
2017,08,23,09,24,19.70
2017,08,23,09,25,19.70
2017,08,23,09,26,19.70
2017,08,23,09,27,19.70
2017,08,23,09,28,19.70
2017,08,23,09,29,19.70
2017,08,23,09,30,19.70
2017,08,23,09,31,19.60
2017,08,23,09,32,19.60
2017,08,23,09,33,19.50
2017,08,23,09,34,19.50
2017,08,23,09,35,19.60
2017,08,23,09,36,19.60
2017,08,23,09,37,19.50
2017,08,23,09,38,19.40
2017,08,23,09,39,19.40
2017,08,23,09,40,19.30
2017,08,23,09,41,19.30
2017,08,23,09,42,19.30
2017,08,23,09,43,19.30
2017,08,23,09,44,19.40
2017,08,23,09,45,19.40
2017,08,23,09,46,19.40
2017,08,23,09,47,19.40
2017,08,23,09,48,19.50
2017,08,23,09,49,19.50
2017,08,23,09,50,19.60
2017,08,23,09,51,19.60
2017,08,23,09,52,19.70
2017,08,23,09,53,19.80
2017,08,23,09,54,19.80
2017,08,23,09,55,19.90
2017,08,23,09,56,19.90
2017,08,23,09,57,20.00
2017,08,23,09,58,20.00
2017,08,23,09,59,20.10
2017,08,23,10,00,20.20
2017,08,23,10,01,20.20
2017,08,23,10,02,20.20
2017,08,23,10,03,20.10
2017,08,23,10,04,20.00
2017,08,23,10,05,19.90
2017,08,23,10,06,19.70
2017,08,23,10,07,19.50
2017,08,23,10,08,19.30
2017,08,23,10,09,19.30
2017,08,23,10,10,19.20
2017,08,23,10,11,19.20
2017,08,23,10,12,19.10
2017,08,23,10,13,19.00
2017,08,23,10,14,19.00
2017,08,23,10,15,18.90
2017,08,23,10,16,18.90
2017,08,23,10,17,18.90
2017,08,23,10,18,18.90
2017,08,23,10,19,18.80
2017,08,23,10,20,18.90
2017,08,23,10,21,18.90
2017,08,23,10,22,18.90
2017,08,23,10,23,18.90
2017,08,23,10,24,18.90
2017,08,23,10,25,18.90
2017,08,23,10,26,18.90
2017,08,23,10,27,18.90
2017,08,23,10,28,18.90
2017,08,23,10,29,18.90
2017,08,23,10,30,18.80
2017,08,23,10,31,18.70
2017,08,23,10,32,18.70
2017,08,23,10,33,18.70
2017,08,23,10,34,18.70
2017,08,23,10,35,18.70
2017,08,23,10,36,18.80
2017,08,23,10,37,18.80
2017,08,23,10,38,18.80
2017,08,23,10,39,18.90
2017,08,23,10,40,18.90
2017,08,23,10,41,19.00
2017,08,23,10,42,19.00
2017,08,23,10,43,19.10
2017,08,23,10,44,19.10
2017,08,23,10,45,19.00
2017,08,23,10,46,18.90
2017,08,23,10,47,18.90
2017,08,23,10,48,18.90
2017,08,23,10,49,18.90
2017,08,23,10,50,18.90
2017,08,23,10,51,18.90
2017,08,23,10,52,18.90
2017,08,23,10,53,18.90
2017,08,23,10,54,19.00
2017,08,23,10,55,19.00
2017,08,23,10,56,18.90
2017,08,23,10,57,18.90
2017,08,23,10,58,18.80
2017,08,23,10,59,18.80
2017,08,23,11,00,18.90
2017,08,23,11,01,18.90
2017,08,23,11,02,18.90
2017,08,23,11,03,18.90
2017,08,23,11,04,18.90
2017,08,23,11,05,18.90
2017,08,23,11,06,18.90
2017,08,23,11,07,18.90
2017,08,23,11,08,19.00
2017,08,23,11,09,19.00
2017,08,23,11,10,19.00
2017,08,23,11,11,19.00
2017,08,23,11,12,19.00
2017,08,23,11,13,19.10
2017,08,23,11,14,19.10
2017,08,23,11,15,19.10
2017,08,23,11,16,19.10
2017,08,23,11,17,19.20
2017,08,23,11,18,19.20
2017,08,23,11,19,19.20
2017,08,23,11,20,19.10
2017,08,23,11,21,19.20
2017,08,23,11,22,19.30
2017,08,23,11,23,19.40
2017,08,23,11,24,19.40
2017,08,23,11,25,19.40
2017,08,23,11,26,19.40
2017,08,23,11,27,19.50
2017,08,23,11,28,19.50
2017,08,23,11,29,19.50
2017,08,23,11,30,19.50
2017,08,23,11,31,19.40
2017,08,23,11,32,19.40
2017,08,23,11,33,19.40
2017,08,23,11,34,19.40
2017,08,23,11,35,19.40
2017,08,23,11,36,19.40
2017,08,23,11,37,19.30
2017,08,23,11,38,19.30
2017,08,23,11,39,19.10
2017,08,23,11,40,19.10
2017,08,23,11,41,19.00
2017,08,23,11,42,18.90
2017,08,23,11,43,18.90
2017,08,23,11,44,18.90
2017,08,23,11,45,18.80
2017,08,23,11,46,18.80
2017,08,23,11,47,18.80
2017,08,23,11,48,18.80
2017,08,23,11,49,18.80
2017,08,23,11,50,18.70
2017,08,23,11,51,18.70
2017,08,23,11,52,18.80
2017,08,23,11,53,18.80
2017,08,23,11,54,18.90
2017,08,23,11,55,19.00
2017,08,23,11,56,19.10
2017,08,23,11,57,19.20
2017,08,23,11,58,19.30
2017,08,23,11,59,19.40
2017,08,23,12,00,19.50
2017,08,23,12,01,19.50
2017,08,23,12,02,19.60
2017,08,23,12,03,19.70
2017,08,23,12,04,19.80
2017,08,23,12,05,19.80
2017,08,23,12,06,19.80
2017,08,23,12,07,19.70
2017,08,23,12,08,19.80
2017,08,23,12,09,19.80
2017,08,23,12,10,19.90
2017,08,23,12,11,20.00
2017,08,23,12,12,20.10
2017,08,23,12,13,20.20
2017,08,23,12,14,20.20
2017,08,23,12,15,20.30
2017,08,23,12,16,20.20
2017,08,23,12,17,20.20
2017,08,23,12,18,20.10
2017,08,23,12,19,20.20
2017,08,23,12,20,20.20
2017,08,23,12,21,20.30
2017,08,23,12,22,20.30
2017,08,23,12,23,20.40
2017,08,23,12,24,20.40
2017,08,23,12,25,20.40
2017,08,23,12,26,20.50
2017,08,23,12,27,20.60
2017,08,23,12,28,20.70
2017,08,23,12,29,20.70
2017,08,23,12,30,20.70
2017,08,23,12,31,20.80
2017,08,23,12,32,20.80
2017,08,23,12,33,20.90
2017,08,23,12,34,20.90
2017,08,23,12,35,21.00
2017,08,23,12,36,21.00
2017,08,23,12,37,20.90
2017,08,23,12,38,20.90
2017,08,23,12,39,20.90
2017,08,23,12,40,20.90
2017,08,23,12,41,20.80
2017,08,23,12,42,20.70
2017,08,23,12,43,20.60
2017,08,23,12,44,20.60
2017,08,23,12,45,20.50
2017,08,23,12,46,20.50
2017,08,23,12,47,20.50
2017,08,23,12,48,20.50
2017,08,23,12,49,20.60
2017,08,23,12,50,20.60
2017,08,23,12,51,20.50
2017,08,23,12,52,20.50
2017,08,23,12,53,20.40
2017,08,23,12,54,20.30
2017,08,23,12,55,20.30
2017,08,23,12,56,20.20
2017,08,23,12,57,20.20
2017,08,23,12,58,20.20
2017,08,23,12,59,20.20
2017,08,23,13,00,20.20
2017,08,23,13,01,20.20
2017,08,23,13,02,20.20
2017,08,23,13,03,20.20
2017,08,23,13,04,20.20
2017,08,23,13,05,20.20
2017,08,23,13,06,20.30
2017,08,23,13,07,20.30
2017,08,23,13,08,20.30
2017,08,23,13,09,20.30
2017,08,23,13,10,20.20
2017,08,23,13,11,20.30
2017,08,23,13,12,20.30
2017,08,23,13,13,20.30
2017,08,23,13,14,20.30
2017,08,23,13,15,20.40
2017,08,23,13,16,20.50
2017,08,23,13,17,20.50
2017,08,23,13,18,20.60
2017,08,23,13,19,20.70
2017,08,23,13,20,20.60
2017,08,23,13,21,20.60
2017,08,23,13,22,20.60
2017,08,23,13,23,20.50
2017,08,23,13,24,20.40
2017,08,23,13,25,20.40
2017,08,23,13,26,20.30
2017,08,23,13,27,20.20
2017,08,23,13,28,20.20
2017,08,23,13,29,20.20
2017,08,23,13,30,20.30
2017,08,23,13,31,20.30
2017,08,23,13,32,20.30
2017,08,23,13,33,20.30
2017,08,23,13,34,20.30
2017,08,23,13,35,20.30
2017,08,23,13,36,20.30
2017,08,23,13,37,20.30
2017,08,23,13,38,20.30
2017,08,23,13,39,20.40
2017,08,23,13,40,20.40
2017,08,23,13,41,20.40
2017,08,23,13,42,20.50
2017,08,23,13,43,20.50
2017,08,23,13,44,20.50
2017,08,23,13,45,20.50
2017,08,23,13,46,20.60
2017,08,23,13,47,20.60
2017,08,23,13,48,20.60
2017,08,23,13,49,20.60
2017,08,23,13,50,20.70
2017,08,23,13,51,20.70
2017,08,23,13,52,20.70
2017,08,23,13,53,20.60
2017,08,23,13,54,20.60
2017,08,23,13,55,20.60
2017,08,23,13,56,20.60
2017,08,23,13,57,20.60
2017,08,23,13,58,20.70
2017,08,23,13,59,20.80
2017,08,23,14,00,21.00
2017,08,23,14,01,21.10
2017,08,23,14,02,21.20
2017,08,23,14,03,21.30
2017,08,23,14,04,21.30
2017,08,23,14,05,21.30
2017,08,23,14,06,21.40
2017,08,23,14,07,21.50
2017,08,23,14,08,21.70
2017,08,23,14,09,21.80
2017,08,23,14,10,21.90
2017,08,23,14,11,22.00
2017,08,23,14,12,22.10
2017,08,23,14,13,22.10
2017,08,23,14,14,22.20
2017,08,23,14,15,22.20
2017,08,23,14,16,22.20
2017,08,23,14,17,22.20
2017,08,23,14,18,22.20
2017,08,23,14,19,22.20
2017,08,23,14,20,22.20
2017,08,23,14,21,22.20
2017,08,23,14,22,22.30
2017,08,23,14,23,22.30
2017,08,23,14,24,22.40
2017,08,23,14,25,22.40
2017,08,23,14,26,22.50
2017,08,23,14,27,22.40
2017,08,23,14,28,22.40
2017,08,23,14,29,22.40
2017,08,23,14,30,22.30
2017,08,23,14,31,22.20
2017,08,23,14,32,22.20
2017,08,23,14,33,22.20
2017,08,23,14,34,22.10
2017,08,23,14,35,22.20
2017,08,23,14,36,22.20
2017,08,23,14,37,22.30
2017,08,23,14,38,22.30
2017,08,23,14,39,22.40
2017,08,23,14,40,22.50
2017,08,23,14,41,22.50
2017,08,23,14,42,22.50
2017,08,23,14,43,22.50
2017,08,23,14,44,22.50
2017,08,23,14,45,22.50
2017,08,23,14,46,22.40
2017,08,23,14,47,22.20
2017,08,23,14,48,22.10
2017,08,23,14,49,21.90
2017,08,23,14,50,21.80
2017,08,23,14,51,21.80
2017,08,23,14,52,21.70
2017,08,23,14,53,21.70
2017,08,23,14,54,21.70
2017,08,23,14,55,21.70
2017,08,23,14,56,21.80
2017,08,23,14,57,21.80
2017,08,23,14,58,21.80
2017,08,23,14,59,21.80
2017,08,23,15,00,21.80
2017,08,23,15,01,21.90
2017,08,23,15,02,22.00
2017,08,23,15,03,22.10
2017,08,23,15,04,22.30
2017,08,23,15,05,22.40
2017,08,23,15,06,22.60
2017,08,23,15,07,22.70
2017,08,23,15,08,22.80
2017,08,23,15,09,22.80
2017,08,23,15,10,22.90
2017,08,23,15,11,23.10
2017,08,23,15,12,23.10
2017,08,23,15,13,23.30
2017,08,23,15,14,23.40
2017,08,23,15,15,23.50
2017,08,23,15,16,23.50
2017,08,23,15,17,23.40
2017,08,23,15,18,23.30
2017,08,23,15,19,23.30
2017,08,23,15,20,23.30
2017,08,23,15,21,23.30
2017,08,23,15,22,23.30
2017,08,23,15,23,23.30
2017,08,23,15,24,23.30
2017,08,23,15,25,23.30
2017,08,23,15,26,23.20
2017,08,23,15,27,23.20
2017,08,23,15,28,23.10
2017,08,23,15,29,23.10
2017,08,23,15,30,23.00
2017,08,23,15,31,22.90
2017,08,23,15,32,22.80
2017,08,23,15,33,22.80
2017,08,23,15,34,22.70
2017,08,23,15,35,22.60
2017,08,23,15,36,22.60
2017,08,23,15,37,22.60
2017,08,23,15,38,22.60
2017,08,23,15,39,22.60
2017,08,23,15,40,22.60
2017,08,23,15,41,22.60
2017,08,23,15,42,22.50
2017,08,23,15,43,22.40
2017,08,23,15,44,22.40
2017,08,23,15,45,22.40
2017,08,23,15,46,22.40
2017,08,23,15,47,22.50
2017,08,23,15,48,22.50
2017,08,23,15,49,22.40
2017,08,23,15,50,22.40
2017,08,23,15,51,22.40
2017,08,23,15,52,22.40
2017,08,23,15,53,22.40
2017,08,23,15,54,22.40
2017,08,23,15,55,22.40
2017,08,23,15,56,22.40
2017,08,23,15,57,22.50
2017,08,23,15,58,22.50
2017,08,23,15,59,22.60
2017,08,23,16,00,22.60
2017,08,23,16,01,22.60
2017,08,23,16,02,22.60
2017,08,23,16,03,22.50
2017,08,23,16,04,22.40
2017,08,23,16,05,22.30
2017,08,23,16,06,22.20
2017,08,23,16,07,22.10
2017,08,23,16,08,22.10
2017,08,23,16,09,22.00
2017,08,23,16,10,21.90
2017,08,23,16,11,21.80
2017,08,23,16,12,21.80
2017,08,23,16,13,21.80
2017,08,23,16,14,21.70
2017,08,23,16,15,21.70
2017,08,23,16,16,21.70
2017,08,23,16,17,21.70
2017,08,23,16,18,21.70
2017,08,23,16,19,21.80
2017,08,23,16,20,21.80
2017,08,23,16,21,21.80
2017,08,23,16,22,21.80
2017,08,23,16,23,21.90
2017,08,23,16,24,21.90
2017,08,23,16,25,22.00
2017,08,23,16,26,22.00
2017,08,23,16,27,22.00
2017,08,23,16,28,22.00
2017,08,23,16,29,22.00
2017,08,23,16,30,22.00
2017,08,23,16,31,22.00
2017,08,23,16,32,22.00
2017,08,23,16,33,22.00
2017,08,23,16,34,22.00
2017,08,23,16,35,22.00
2017,08,23,16,36,22.00
2017,08,23,16,37,21.90
2017,08,23,16,38,21.90
2017,08,23,16,39,21.90
2017,08,23,16,40,21.90
2017,08,23,16,41,21.80
2017,08,23,16,42,21.80
2017,08,23,16,43,21.70
2017,08,23,16,44,21.60
2017,08,23,16,45,21.60
2017,08,23,16,46,21.50
2017,08,23,16,47,21.50
2017,08,23,16,48,21.40
2017,08,23,16,49,21.40
2017,08,23,16,50,21.40
2017,08,23,16,51,21.30
2017,08,23,16,52,21.40
2017,08,23,16,53,21.40
2017,08,23,16,54,21.40
2017,08,23,16,55,21.40
2017,08,23,16,56,21.50
2017,08,23,16,57,21.50
2017,08,23,16,58,21.50
2017,08,23,16,59,21.50
2017,08,23,17,00,21.50
2017,08,23,17,01,21.50
2017,08,23,17,02,21.50
2017,08,23,17,03,21.60
2017,08,23,17,04,21.60
2017,08,23,17,05,21.60
2017,08,23,17,06,21.70
2017,08,23,17,07,21.70
2017,08,23,17,08,21.80
2017,08,23,17,09,21.80
2017,08,23,17,10,21.80
2017,08,23,17,11,21.80
2017,08,23,17,12,21.80
2017,08,23,17,13,21.80
2017,08,23,17,14,21.80
2017,08,23,17,15,21.80
2017,08,23,17,16,21.80
2017,08,23,17,17,21.80
2017,08,23,17,18,21.80
2017,08,23,17,19,21.80